Time,TemperatureF,DewpointF,PressureIn,WindDirection,WindDirectionDegrees,WindSpeedMPH,WindSpeedGustMPH,Humidity,HourlyPrecipIn,Conditions,Clouds,dailyrainin,SoftwareType,DateUTC
2013-08-24 00:01:00,62.5,54.7,29.97,North,0,0.0,0.0,76,0.00,,,0.00,WUHU216HW,2013-08-24 06:01:00,
2013-08-24 00:06:00,62.5,54.7,29.97,North,0,0.0,0.0,76,0.00,,,0.00,WUHU216HW,2013-08-24 06:06:00,
2013-08-24 00:11:00,62.3,54.5,29.97,North,0,0.0,0.0,76,0.00,,,0.00,WUHU216HW,2013-08-24 06:11:00,
2013-08-24 00:16:00,62.3,54.2,29.97,North,0,0.0,0.0,75,0.00,,,0.00,WUHU216HW,2013-08-24 06:16:00,
2013-08-24 00:21:00,62.5,54.7,29.97,North,0,0.0,0.0,76,0.00,,,0.00,WUHU216HW,2013-08-24 06:21:00,
2013-08-24 00:26:00,62.3,54.5,29.97,North,0,0.0,0.0,76,0.00,,,0.00,WUHU216HW,2013-08-24 06:26:00,
2013-08-24 00:31:00,62.3,54.2,29.97,North,0,0.0,0.0,75,0.00,,,0.00,WUHU216HW,2013-08-24 06:31:00,
2013-08-24 00:36:00,62.1,54.1,29.97,North,0,0.0,0.0,75,0.00,,,0.00,WUHU216HW,2013-08-24 06:36:00,
2013-08-24 00:41:00,62.5,54.4,29.97,North,0,0.0,0.0,75,0.00,,,0.00,WUHU216HW,2013-08-24 06:41:00,
2013-08-24 00:46:00,62.5,54.4,29.97,North,0,0.0,0.0,75,0.00,,,0.00,WUHU216HW,2013-08-24 06:46:00,
2013-08-24 00:51:00,62.3,54.9,29.97,North,0,0.0,0.0,77,0.00,,,0.00,WUHU216HW,2013-08-24 06:51:00,
2013-08-24 00:56:00,62.3,54.9,29.97,North,0,0.0,0.0,77,0.00,,,0.00,WUHU216HW,2013-08-24 06:56:00,
2013-08-24 01:01:00,62.3,54.9,29.97,North,0,0.0,0.0,77,0.00,,,0.00,WUHU216HW,2013-08-24 07:01:00,
2013-08-24 01:06:00,62.1,55.2,29.97,North,0,0.0,0.0,78,0.00,,,0.00,WUHU216HW,2013-08-24 07:06:00,
2013-08-24 01:11:00,61.9,54.6,29.98,North,0,0.0,0.0,77,0.00,,,0.00,WUHU216HW,2013-08-24 07:11:00,
2013-08-24 01:16:00,61.7,54.8,29.98,North,0,0.0,0.0,78,0.00,,,0.00,WUHU216HW,2013-08-24 07:16:00,
2013-08-24 01:21:00,61.6,55.0,29.97,North,0,0.0,0.0,79,0.00,,,0.00,WUHU216HW,2013-08-24 07:21:00,
2013-08-24 01:26:00,61.6,55.0,29.98,North,0,0.0,0.0,79,0.00,,,0.00,WUHU216HW,2013-08-24 07:26:00,
2013-08-24 01:31:00,61.6,55.0,29.98,North,0,0.0,0.0,79,0.00,,,0.00,WUHU216HW,2013-08-24 07:31:00,
2013-08-24 01:36:00,61.6,55.0,29.98,North,0,0.0,0.0,79,0.00,,,0.00,WUHU216HW,2013-08-24 07:36:00,
2013-08-24 01:41:00,61.6,54.6,29.98,North,0,0.0,0.0,78,0.00,,,0.00,WUHU216HW,2013-08-24 07:41:00,
2013-08-24 01:46:00,61.6,54.6,29.97,North,0,0.0,0.0,78,0.00,,,0.00,WUHU216HW,2013-08-24 07:46:00,
2013-08-24 01:51:00,61.6,54.3,29.97,North,0,0.0,0.0,77,0.00,,,0.00,WUHU216HW,2013-08-24 07:51:00,
2013-08-24 01:56:00,61.6,54.3,29.97,North,0,0.0,0.0,77,0.00,,,0.00,WUHU216HW,2013-08-24 07:56:00,
2013-08-24 02:01:00,61.7,54.5,29.97,North,0,0.0,0.0,77,0.00,,,0.00,WUHU216HW,2013-08-24 08:01:00,
2013-08-24 02:06:00,61.7,54.5,29.97,North,0,0.0,0.0,77,0.00,,,0.00,WUHU216HW,2013-08-24 08:06:00,
2013-08-24 02:11:00,61.7,54.5,29.97,North,0,0.0,0.0,77,0.00,,,0.00,WUHU216HW,2013-08-24 08:11:00,
2013-08-24 02:16:00,61.7,54.1,29.97,North,0,0.0,0.0,76,0.00,,,0.00,WUHU216HW,2013-08-24 08:16:00,
2013-08-24 02:21:00,61.9,54.6,29.97,North,0,0.0,0.0,77,0.00,,,0.00,WUHU216HW,2013-08-24 08:21:00,
2013-08-24 02:26:00,61.9,54.3,29.97,North,0,0.0,0.0,76,0.00,,,0.00,WUHU216HW,2013-08-24 08:26:00,
2013-08-24 02:31:00,61.9,54.6,29.98,North,0,0.0,0.0,77,0.00,,,0.00,WUHU216HW,2013-08-24 08:31:00,
2013-08-24 02:36:00,61.9,54.3,29.97,North,0,0.0,0.0,76,0.00,,,0.00,WUHU216HW,2013-08-24 08:36:00,
2013-08-24 02:41:00,61.9,54.3,29.97,North,0,0.0,0.0,76,0.00,,,0.00,WUHU216HW,2013-08-24 08:41:00,
2013-08-24 02:46:00,61.9,54.3,29.98,North,0,0.0,0.0,76,0.00,,,0.00,WUHU216HW,2013-08-24 08:46:00,
2013-08-24 02:51:00,61.9,55.0,29.98,North,0,0.0,0.0,78,0.00,,,0.00,WUHU216HW,2013-08-24 08:51:00,
2013-08-24 02:56:00,61.9,55.4,29.98,North,0,0.0,0.0,79,0.00,,,0.00,WUHU216HW,2013-08-24 08:56:00,
2013-08-24 03:01:00,61.6,54.6,29.98,North,0,0.0,0.0,78,0.00,,,0.00,WUHU216HW,2013-08-24 09:01:00,
2013-08-24 03:06:00,61.4,54.8,29.97,North,0,0.0,0.0,79,0.00,,,0.00,WUHU216HW,2013-08-24 09:06:00,
2013-08-24 03:11:00,61.2,54.7,29.98,North,0,0.0,0.0,79,0.00,,,0.00,WUHU216HW,2013-08-24 09:11:00,
2013-08-24 03:16:00,61.0,54.6,29.98,North,0,0.0,0.0,79,0.00,,,0.00,WUHU216HW,2013-08-24 09:16:00,
2013-08-24 03:21:00,60.8,54.4,29.98,North,0,0.0,0.0,79,0.00,,,0.00,WUHU216HW,2013-08-24 09:21:00,
2013-08-24 03:26:00,60.8,54.7,29.98,North,0,0.0,0.0,80,0.00,,,0.00,WUHU216HW,2013-08-24 09:26:00,
2013-08-24 03:31:00,60.8,54.7,29.98,North,0,0.0,0.0,80,0.00,,,0.00,WUHU216HW,2013-08-24 09:31:00,
2013-08-24 03:36:00,60.7,54.5,29.98,North,0,0.0,0.0,80,0.00,,,0.00,WUHU216HW,2013-08-24 09:36:00,
2013-08-24 03:41:00,60.7,54.5,29.98,North,0,0.0,0.0,80,0.00,,,0.00,WUHU216HW,2013-08-24 09:41:00,
2013-08-24 03:46:00,60.7,54.5,29.98,North,0,0.0,0.0,80,0.00,,,0.00,WUHU216HW,2013-08-24 09:46:00,
2013-08-24 03:51:00,60.5,54.4,29.98,North,0,0.0,0.0,80,0.00,,,0.00,WUHU216HW,2013-08-24 09:51:00,
2013-08-24 03:56:00,60.5,54.7,29.98,North,0,0.0,0.0,81,0.00,,,0.00,WUHU216HW,2013-08-24 09:56:00,
2013-08-24 04:01:00,60.5,54.7,29.98,North,0,0.0,0.0,81,0.00,,,0.00,WUHU216HW,2013-08-24 10:01:00,
2013-08-24 04:06:00,60.5,54.7,29.98,North,0,0.0,0.0,81,0.00,,,0.00,WUHU216HW,2013-08-24 10:06:00,
2013-08-24 04:11:00,60.5,54.4,29.98,North,0,0.0,0.0,80,0.00,,,0.00,WUHU216HW,2013-08-24 10:11:00,
2013-08-24 04:16:00,60.7,54.9,29.98,North,0,0.0,0.0,81,0.00,,,0.00,WUHU216HW,2013-08-24 10:16:00,
2013-08-24 04:21:00,60.7,54.9,29.98,North,0,0.0,0.0,81,0.00,,,0.00,WUHU216HW,2013-08-24 10:21:00,
2013-08-24 04:26:00,60.8,54.7,29.98,North,0,0.0,0.0,80,0.00,,,0.00,WUHU216HW,2013-08-24 10:26:00,
2013-08-24 04:31:00,61.0,54.6,29.99,North,0,0.0,0.0,79,0.00,,,0.00,WUHU216HW,2013-08-24 10:31:00,
2013-08-24 04:36:00,61.2,54.7,29.99,North,0,0.0,0.0,79,0.00,,,0.00,WUHU216HW,2013-08-24 10:36:00,
2013-08-24 04:41:00,61.2,54.7,29.99,North,0,0.0,0.0,79,0.00,,,0.00,WUHU216HW,2013-08-24 10:41:00,
2013-08-24 04:46:00,61.2,55.1,29.99,North,0,0.0,0.0,80,0.00,,,0.00,WUHU216HW,2013-08-24 10:46:00,
2013-08-24 04:51:00,61.0,54.6,29.99,North,0,0.0,0.0,79,0.00,,,0.00,WUHU216HW,2013-08-24 10:51:00,
2013-08-24 04:56:00,60.8,54.7,29.99,North,0,0.0,0.0,80,0.00,,,0.00,WUHU216HW,2013-08-24 10:56:00,
2013-08-24 05:01:00,60.8,54.4,29.99,North,0,0.0,0.0,79,0.00,,,0.00,WUHU216HW,2013-08-24 11:01:00,
2013-08-24 05:06:00,60.8,54.4,29.99,North,0,0.0,0.0,79,0.00,,,0.00,WUHU216HW,2013-08-24 11:06:00,
2013-08-24 05:11:00,60.7,54.2,29.99,North,0,0.0,0.0,79,0.00,,,0.00,WUHU216HW,2013-08-24 11:11:00,
2013-08-24 05:16:00,60.5,54.0,29.99,North,0,0.0,0.0,79,0.00,,,0.00,WUHU216HW,2013-08-24 11:16:00,
2013-08-24 05:21:00,60.3,53.8,29.99,North,0,0.0,0.0,79,0.00,,,0.00,WUHU216HW,2013-08-24 11:21:00,
2013-08-24 05:26:00,60.1,54.4,29.99,North,0,0.0,0.0,81,0.00,,,0.00,WUHU216HW,2013-08-24 11:26:00,
2013-08-24 05:31:00,60.1,54.0,29.99,North,0,0.0,0.0,80,0.00,,,0.00,WUHU216HW,2013-08-24 11:31:00,
2013-08-24 05:36:00,60.3,54.2,29.99,North,0,0.0,0.0,80,0.00,,,0.00,WUHU216HW,2013-08-24 11:36:00,
2013-08-24 05:41:00,60.3,53.8,29.99,North,0,0.0,0.0,79,0.00,,,0.00,WUHU216HW,2013-08-24 11:41:00,
2013-08-24 05:46:00,60.1,53.6,29.99,North,0,0.0,0.0,79,0.00,,,0.00,WUHU216HW,2013-08-24 11:46:00,
2013-08-24 05:51:00,59.8,53.6,29.99,North,0,0.0,0.0,80,0.00,,,0.00,WUHU216HW,2013-08-24 11:51:00,
2013-08-24 05:56:00,59.4,53.7,29.99,North,0,0.0,0.0,81,0.00,,,0.00,WUHU216HW,2013-08-24 11:56:00,
2013-08-24 06:01:00,59.0,53.3,29.99,North,0,0.0,0.0,81,0.00,,,0.00,WUHU216HW,2013-08-24 12:01:00,
2013-08-24 06:06:00,58.7,52.9,29.99,North,0,0.0,0.0,81,0.00,,,0.00,WUHU216HW,2013-08-24 12:06:00,
2013-08-24 06:11:00,58.3,52.8,29.99,North,0,0.0,0.0,82,0.00,,,0.00,WUHU216HW,2013-08-24 12:11:00,
2013-08-24 06:16:00,58.0,52.5,29.99,North,0,0.0,0.0,82,0.00,,,0.00,WUHU216HW,2013-08-24 12:16:00,
2013-08-24 06:21:00,57.8,52.3,29.99,North,0,0.0,0.0,82,0.00,,,0.00,WUHU216HW,2013-08-24 12:21:00,
2013-08-24 06:26:00,57.6,52.5,29.99,North,0,0.0,0.0,83,0.00,,,0.00,WUHU216HW,2013-08-24 12:26:00,
2013-08-24 06:31:00,57.4,52.3,29.99,North,0,0.0,0.0,83,0.00,,,0.00,WUHU216HW,2013-08-24 12:31:00,
2013-08-24 06:36:00,57.2,52.1,29.99,North,0,0.0,0.0,83,0.00,,,0.00,WUHU216HW,2013-08-24 12:36:00,
2013-08-24 06:41:00,57.2,52.1,29.99,North,0,0.0,0.0,83,0.00,,,0.00,WUHU216HW,2013-08-24 12:41:00,
2013-08-24 06:46:00,57.1,51.9,29.99,North,0,0.0,0.0,83,0.00,,,0.00,WUHU216HW,2013-08-24 12:46:00,
2013-08-24 06:51:00,56.9,51.8,29.99,North,0,0.0,0.0,83,0.00,,,0.00,WUHU216HW,2013-08-24 12:51:00,
2013-08-24 06:56:00,56.9,51.8,29.99,North,0,0.0,0.0,83,0.00,,,0.00,WUHU216HW,2013-08-24 12:56:00,
2013-08-24 07:01:00,56.7,51.6,29.99,North,0,0.0,0.0,83,0.00,,,0.00,WUHU216HW,2013-08-24 13:01:00,
2013-08-24 07:06:00,56.5,51.0,30.00,North,0,0.0,0.0,82,0.00,,,0.00,WUHU216HW,2013-08-24 13:06:00,
2013-08-24 07:11:00,56.3,50.9,30.00,North,0,0.0,0.0,82,0.00,,,0.00,WUHU216HW,2013-08-24 13:11:00,
2013-08-24 07:16:00,56.2,50.7,30.00,North,0,0.0,0.0,82,0.00,,,0.00,WUHU216HW,2013-08-24 13:16:00,
2013-08-24 07:21:00,56.0,50.9,30.00,North,0,0.0,0.0,83,0.00,,,0.00,WUHU216HW,2013-08-24 13:21:00,
2013-08-24 07:26:00,56.2,51.0,30.00,North,0,0.0,0.0,83,0.00,,,0.00,WUHU216HW,2013-08-24 13:26:00,
2013-08-24 07:31:00,56.2,51.0,30.01,North,0,0.0,0.0,83,0.00,,,0.00,WUHU216HW,2013-08-24 13:31:00,
2013-08-24 07:36:00,56.5,51.4,30.01,North,0,0.0,0.0,83,0.00,,,0.00,WUHU216HW,2013-08-24 13:36:00,
2013-08-24 07:41:00,56.7,52.2,30.01,North,0,0.0,0.0,85,0.00,,,0.00,WUHU216HW,2013-08-24 13:41:00,
2013-08-24 07:46:00,57.1,52.2,30.01,North,0,0.0,0.0,84,0.00,,,0.00,WUHU216HW,2013-08-24 13:46:00,
2013-08-24 07:51:00,57.2,52.7,30.01,North,0,0.0,0.0,85,0.00,,,0.00,WUHU216HW,2013-08-24 13:51:00,
2013-08-24 07:56:00,57.6,53.5,30.01,North,0,0.0,0.0,86,0.00,,,0.00,WUHU216HW,2013-08-24 13:56:00,
2013-08-24 08:01:00,58.0,54.1,30.02,North,0,0.0,0.0,87,0.00,,,0.00,WUHU216HW,2013-08-24 14:01:00,
2013-08-24 08:05:00,58.3,54.5,30.02,North,0,0.0,0.0,87,0.00,,,0.00,WUHU216HW,2013-08-24 14:05:00,
2013-08-24 08:10:00,58.7,54.6,30.02,North,0,0.0,0.0,86,0.00,,,0.00,WUHU216HW,2013-08-24 14:10:00,
2013-08-24 08:15:00,59.0,54.5,30.02,North,0,0.0,0.0,85,0.00,,,0.00,WUHU216HW,2013-08-24 14:15:00,
2013-08-24 08:20:00,59.4,54.9,30.02,North,0,0.0,0.0,85,0.00,,,0.00,WUHU216HW,2013-08-24 14:20:00,
2013-08-24 08:25:00,59.8,55.3,30.02,North,0,0.0,0.0,85,0.00,,,0.00,WUHU216HW,2013-08-24 14:25:00,
2013-08-24 08:30:00,60.1,55.3,30.03,North,0,0.0,0.0,84,0.00,,,0.00,WUHU216HW,2013-08-24 14:30:00,
2013-08-24 08:35:00,60.5,55.4,30.03,North,0,0.0,0.0,83,0.00,,,0.00,WUHU216HW,2013-08-24 14:35:00,
2013-08-24 08:40:00,60.8,55.7,30.03,North,0,0.0,0.0,83,0.00,,,0.00,WUHU216HW,2013-08-24 14:40:00,
2013-08-24 08:45:00,61.4,56.2,30.03,North,0,0.0,0.0,83,0.00,,,0.00,WUHU216HW,2013-08-24 14:45:00,
2013-08-24 08:50:00,61.6,56.1,30.03,North,0,0.0,0.0,82,0.00,,,0.00,WUHU216HW,2013-08-24 14:50:00,
2013-08-24 08:55:00,62.1,56.2,30.03,North,0,0.0,0.0,81,0.00,,,0.00,WUHU216HW,2013-08-24 14:55:00,
2013-08-24 09:00:00,62.5,56.2,30.03,North,0,0.0,0.0,80,0.00,,,0.00,WUHU216HW,2013-08-24 15:00:00,
2013-08-24 09:05:00,62.8,56.2,30.03,North,0,0.0,0.0,79,0.00,,,0.00,WUHU216HW,2013-08-24 15:05:00,
2013-08-24 09:10:00,63.2,56.5,30.03,North,0,0.0,0.0,79,0.00,,,0.00,WUHU216HW,2013-08-24 15:10:00,
2013-08-24 09:15:00,63.5,56.9,30.03,North,0,0.0,0.0,79,0.00,,,0.00,WUHU216HW,2013-08-24 15:15:00,
2013-08-24 09:20:00,63.7,57.1,30.03,North,0,0.0,0.0,79,0.00,,,0.00,WUHU216HW,2013-08-24 15:20:00,
2013-08-24 09:25:00,64.1,56.7,30.03,North,0,0.0,0.0,77,0.00,,,0.00,WUHU216HW,2013-08-24 15:25:00,
2013-08-24 09:30:00,64.4,57.1,30.03,North,0,0.0,0.0,77,0.00,,,0.00,WUHU216HW,2013-08-24 15:30:00,
2013-08-24 09:35:00,64.8,57.4,30.03,North,0,0.0,0.0,77,0.00,,,0.00,WUHU216HW,2013-08-24 15:35:00,
2013-08-24 09:40:00,65.2,57.4,30.03,North,0,0.0,0.0,76,0.00,,,0.00,WUHU216HW,2013-08-24 15:40:00,
2013-08-24 09:45:00,65.7,57.5,30.03,North,0,0.0,0.0,75,0.00,,,0.00,WUHU216HW,2013-08-24 15:45:00,
2013-08-24 09:50:00,66.2,58.1,30.03,North,0,0.0,0.0,75,0.00,,,0.00,WUHU216HW,2013-08-24 15:50:00,
2013-08-24 09:55:00,66.6,58.1,30.03,North,0,0.0,0.0,74,0.00,,,0.00,WUHU216HW,2013-08-24 15:55:00,
2013-08-24 10:00:00,67.0,58.1,30.03,North,0,0.0,0.0,73,0.00,,,0.00,WUHU216HW,2013-08-24 16:00:00,
2013-08-24 10:05:00,67.5,58.6,30.03,North,0,0.0,0.0,73,0.00,,,0.00,WUHU216HW,2013-08-24 16:05:00,
2013-08-24 10:10:00,68.0,58.7,30.03,North,0,0.0,0.0,72,0.00,,,0.00,WUHU216HW,2013-08-24 16:10:00,
2013-08-24 10:15:00,68.4,58.7,30.03,North,0,0.0,0.0,71,0.00,,,0.00,WUHU216HW,2013-08-24 16:15:00,
2013-08-24 10:20:00,68.9,58.3,30.03,North,0,0.0,0.0,69,0.00,,,0.00,WUHU216HW,2013-08-24 16:20:00,
2013-08-24 10:25:00,69.1,58.5,30.03,North,0,0.0,0.0,69,0.00,,,0.00,WUHU216HW,2013-08-24 16:25:00,
2013-08-24 10:31:00,69.5,57.6,30.03,North,0,0.0,0.0,66,0.00,,,0.00,WUHU216HW,2013-08-24 16:31:00,
2013-08-24 10:36:00,70.0,58.2,30.03,North,0,0.0,0.0,66,0.00,,,0.00,WUHU216HW,2013-08-24 16:36:00,
2013-08-24 10:41:00,70.6,58.2,30.03,North,0,0.0,0.0,65,0.00,,,0.00,WUHU216HW,2013-08-24 16:41:00,
2013-08-24 10:46:00,71.1,58.7,30.03,North,0,0.0,0.0,65,0.00,,,0.00,WUHU216HW,2013-08-24 16:46:00,
2013-08-24 10:51:00,71.6,58.0,30.03,North,0,0.0,0.0,62,0.00,,,0.00,WUHU216HW,2013-08-24 16:51:00,
2013-08-24 10:56:00,72.4,57.3,30.03,North,0,0.0,0.0,59,0.00,,,0.00,WUHU216HW,2013-08-24 16:56:00,
2013-08-24 11:01:00,72.9,58.2,30.03,North,0,0.0,0.0,60,0.00,,,0.00,WUHU216HW,2013-08-24 17:01:00,
2013-08-24 11:06:00,73.4,57.7,30.03,North,0,0.0,0.0,58,0.00,,,0.00,WUHU216HW,2013-08-24 17:06:00,
2013-08-24 11:11:00,74.3,58.1,30.03,North,0,0.0,0.0,57,0.00,,,0.00,WUHU216HW,2013-08-24 17:11:00,
2013-08-24 11:16:00,74.9,57.1,30.04,North,0,0.0,0.0,54,0.00,,,0.00,WUHU216HW,2013-08-24 17:16:00,
2013-08-24 11:21:00,75.2,56.0,30.03,North,0,0.0,0.0,51,0.00,,,0.00,WUHU216HW,2013-08-24 17:21:00,
2013-08-24 11:26:00,75.4,56.1,30.03,North,0,0.0,0.0,51,0.00,,,0.00,WUHU216HW,2013-08-24 17:26:00,
2013-08-24 11:31:00,76.0,57.1,30.03,North,0,0.0,0.0,52,0.00,,,0.00,WUHU216HW,2013-08-24 17:31:00,
2013-08-24 11:36:00,76.3,56.9,30.04,North,0,0.0,0.0,51,0.00,,,0.00,WUHU216HW,2013-08-24 17:36:00,
2013-08-24 11:41:00,76.5,55.4,30.03,North,0,0.0,0.0,48,0.00,,,0.00,WUHU216HW,2013-08-24 17:41:00,
2013-08-24 11:46:00,76.7,56.7,30.03,North,0,0.0,0.0,50,0.00,,,0.00,WUHU216HW,2013-08-24 17:46:00,
2013-08-24 11:51:00,77.0,55.8,30.03,North,0,0.0,0.0,48,0.00,,,0.00,WUHU216HW,2013-08-24 17:51:00,
2013-08-24 11:56:00,77.2,56.0,30.03,North,0,0.0,0.0,48,0.00,,,0.00,WUHU216HW,2013-08-24 17:56:00,
2013-08-24 12:01:00,77.2,55.4,30.03,North,0,0.0,0.0,47,0.00,,,0.00,WUHU216HW,2013-08-24 18:01:00,
2013-08-24 12:06:00,77.2,56.0,30.03,North,0,0.0,0.0,48,0.00,,,0.00,WUHU216HW,2013-08-24 18:06:00,
2013-08-24 12:11:00,77.6,56.4,30.03,North,0,0.0,0.0,48,0.00,,,0.00,WUHU216HW,2013-08-24 18:11:00,
2013-08-24 12:16:00,77.8,55.3,30.02,North,0,0.0,0.0,46,0.00,,,0.00,WUHU216HW,2013-08-24 18:16:00,
2013-08-24 12:21:00,77.8,55.9,30.02,North,0,0.0,0.0,47,0.00,,,0.00,WUHU216HW,2013-08-24 18:21:00,
2013-08-24 12:26:00,78.1,55.6,30.02,North,0,0.0,0.0,46,0.00,,,0.00,WUHU216HW,2013-08-24 18:26:00,
2013-08-24 12:31:00,78.7,56.1,30.02,North,0,0.0,0.0,46,0.00,,,0.00,WUHU216HW,2013-08-24 18:31:00,
2013-08-24 12:36:00,78.7,56.1,30.02,North,0,0.0,0.0,46,0.00,,,0.00,WUHU216HW,2013-08-24 18:36:00,
2013-08-24 12:41:00,78.7,56.1,30.02,North,0,0.0,0.0,46,0.00,,,0.00,WUHU216HW,2013-08-24 18:41:00,
2013-08-24 12:46:00,78.8,56.3,30.02,North,0,0.0,0.0,46,0.00,,,0.00,WUHU216HW,2013-08-24 18:46:00,
2013-08-24 12:51:00,79.2,56.0,30.01,North,0,0.0,0.0,45,0.00,,,0.00,WUHU216HW,2013-08-24 18:51:00,
2013-08-24 12:55:00,79.2,56.5,30.01,North,0,0.0,0.0,46,0.00,,,0.00,WUHU216HW,2013-08-24 18:55:00,
2013-08-24 13:01:00,79.6,56.3,30.01,North,0,0.0,0.0,45,0.00,,,0.00,WUHU216HW,2013-08-24 19:01:00,
2013-08-24 13:06:00,79.9,56.6,30.01,North,0,0.0,0.0,45,0.00,,,0.00,WUHU216HW,2013-08-24 19:06:00,
2013-08-24 13:11:00,80.1,56.2,30.00,North,0,0.0,0.0,44,0.00,,,0.00,WUHU216HW,2013-08-24 19:11:00,
2013-08-24 13:16:00,80.3,55.1,30.00,North,0,0.0,0.0,42,0.00,,,0.00,WUHU216HW,2013-08-24 19:16:00,
2013-08-24 13:21:00,80.3,56.4,30.00,North,0,0.0,0.0,44,0.00,,,0.00,WUHU216HW,2013-08-24 19:21:00,
2013-08-24 13:26:00,80.1,55.5,30.00,North,0,0.0,0.0,43,0.00,,,0.00,WUHU216HW,2013-08-24 19:26:00,
2013-08-24 13:31:00,80.3,55.7,30.00,North,0,0.0,0.0,43,0.00,,,0.00,WUHU216HW,2013-08-24 19:31:00,
2013-08-24 13:36:00,80.8,56.2,30.00,North,0,0.0,0.0,43,0.00,,,0.00,WUHU216HW,2013-08-24 19:36:00,
2013-08-24 13:41:00,81.2,54.6,29.99,North,0,0.0,0.0,40,0.00,,,0.00,WUHU216HW,2013-08-24 19:41:00,
2013-08-24 13:46:00,81.5,55.6,29.99,North,0,0.0,0.0,41,0.00,,,0.00,WUHU216HW,2013-08-24 19:46:00,
2013-08-24 13:51:00,81.4,54.8,29.99,North,0,0.0,0.0,40,0.00,,,0.00,WUHU216HW,2013-08-24 19:51:00,
2013-08-24 13:56:00,81.9,55.4,29.99,North,0,0.0,0.0,40,0.00,,,0.00,WUHU216HW,2013-08-24 19:56:00,
2013-08-24 14:01:00,82.4,55.0,29.99,North,0,0.0,0.0,39,0.00,,,0.00,WUHU216HW,2013-08-24 20:01:00,
2013-08-24 14:06:00,82.8,56.2,29.99,North,0,0.0,0.0,40,0.00,,,0.00,WUHU216HW,2013-08-24 20:06:00,
2013-08-24 14:11:00,82.8,54.5,29.99,North,0,0.0,0.0,38,0.00,,,0.00,WUHU216HW,2013-08-24 20:11:00,
2013-08-24 14:16:00,82.4,54.2,29.99,North,0,0.0,0.0,38,0.00,,,0.00,WUHU216HW,2013-08-24 20:16:00,
2013-08-24 14:21:00,83.2,54.9,29.99,North,0,0.0,0.0,38,0.00,,,0.00,WUHU216HW,2013-08-24 20:21:00,
2013-08-24 14:26:00,83.7,55.4,29.98,North,0,0.0,0.0,38,0.00,,,0.00,WUHU216HW,2013-08-24 20:26:00,
2013-08-24 14:31:00,83.9,53.1,29.98,North,0,0.0,0.0,35,0.00,,,0.00,WUHU216HW,2013-08-24 20:31:00,
2013-08-24 14:36:00,84.6,53.8,29.98,North,0,0.0,0.0,35,0.00,,,0.00,WUHU216HW,2013-08-24 20:36:00,
2013-08-24 14:41:00,85.0,50.9,29.98,North,0,0.0,0.0,31,0.00,,,0.00,WUHU216HW,2013-08-24 20:41:00,
2013-08-24 14:46:00,85.3,50.5,29.98,North,0,0.0,0.0,30,0.00,,,0.00,WUHU216HW,2013-08-24 20:46:00,
2013-08-24 14:51:00,85.3,52.0,29.97,North,0,0.0,0.0,32,0.00,,,0.00,WUHU216HW,2013-08-24 20:51:00,
2013-08-24 14:56:00,85.3,52.0,29.97,North,0,0.0,0.0,32,0.00,,,0.00,WUHU216HW,2013-08-24 20:56:00,
2013-08-24 15:01:00,85.1,49.2,29.97,North,0,0.0,0.0,29,0.00,,,0.00,WUHU216HW,2013-08-24 21:01:00,
2013-08-24 15:06:00,85.7,47.6,29.97,North,0,0.0,0.0,27,0.00,,,0.00,WUHU216HW,2013-08-24 21:06:00,
2013-08-24 15:11:00,86.2,50.2,29.97,North,0,0.0,0.0,29,0.00,,,0.00,WUHU216HW,2013-08-24 21:11:00,
2013-08-24 15:16:00,86.8,49.6,29.97,North,0,0.0,0.0,28,0.00,,,0.00,WUHU216HW,2013-08-24 21:16:00,
2013-08-24 15:21:00,86.9,49.7,29.97,North,0,0.0,0.0,28,0.00,,,0.00,WUHU216HW,2013-08-24 21:21:00,
2013-08-24 15:26:00,87.1,51.0,29.97,North,0,0.0,0.0,29,0.00,,,0.00,WUHU216HW,2013-08-24 21:26:00,
2013-08-24 15:31:00,87.1,47.7,29.97,North,0,0.0,0.0,26,0.00,,,0.00,WUHU216HW,2013-08-24 21:31:00,
2013-08-24 15:36:00,87.1,46.6,29.96,North,0,0.0,0.0,25,0.00,,,0.00,WUHU216HW,2013-08-24 21:36:00,
2013-08-24 15:41:00,87.1,51.0,29.96,North,0,0.0,0.0,29,0.00,,,0.00,WUHU216HW,2013-08-24 21:41:00,
2013-08-24 15:46:00,87.3,50.0,29.96,North,0,0.0,0.0,28,0.00,,,0.00,WUHU216HW,2013-08-24 21:46:00,
2013-08-24 15:51:00,87.8,51.5,29.95,North,0,0.0,0.0,29,0.00,,,0.00,WUHU216HW,2013-08-24 21:51:00,
2013-08-24 15:56:00,87.8,47.3,29.95,North,0,0.0,0.0,25,0.00,,,0.00,WUHU216HW,2013-08-24 21:56:00,
2013-08-24 16:01:00,87.8,50.4,29.95,North,0,0.0,0.0,28,0.00,,,0.00,WUHU216HW,2013-08-24 22:01:00,
2013-08-24 16:06:00,88.0,50.6,29.94,North,0,0.0,0.0,28,0.00,,,0.00,WUHU216HW,2013-08-24 22:06:00,
2013-08-24 16:11:00,88.2,50.8,29.94,North,0,0.0,0.0,28,0.00,,,0.00,WUHU216HW,2013-08-24 22:11:00,
2013-08-24 16:16:00,88.6,49.0,29.94,North,0,0.0,0.0,26,0.00,,,0.00,WUHU216HW,2013-08-24 22:16:00,
2013-08-24 16:21:00,88.9,48.2,29.94,North,0,0.0,0.0,25,0.00,,,0.00,WUHU216HW,2013-08-24 22:21:00,
2013-08-24 16:26:00,89.3,49.6,29.94,North,0,0.0,0.0,26,0.00,,,0.00,WUHU216HW,2013-08-24 22:26:00,
2013-08-24 16:31:00,89.5,49.7,29.94,North,0,0.0,0.0,26,0.00,,,0.00,WUHU216HW,2013-08-24 22:31:00,
2013-08-24 16:36:00,88.9,48.2,29.94,North,0,0.0,0.0,25,0.00,,,0.00,WUHU216HW,2013-08-24 22:36:00,
2013-08-24 16:41:00,88.4,46.6,29.93,North,0,0.0,0.0,24,0.00,,,0.00,WUHU216HW,2013-08-24 22:41:00,
2013-08-24 16:46:00,87.7,48.2,29.94,North,0,0.0,0.0,26,0.00,,,0.00,WUHU216HW,2013-08-24 22:46:00,
2013-08-24 16:51:00,87.5,50.1,29.94,North,0,0.0,0.0,28,0.00,,,0.00,WUHU216HW,2013-08-24 22:51:00,
2013-08-24 16:56:00,87.5,50.1,29.93,North,0,0.0,0.0,28,0.00,,,0.00,WUHU216HW,2013-08-24 22:56:00,
2013-08-24 17:01:00,87.5,50.1,29.93,North,0,0.0,0.0,28,0.00,,,0.00,WUHU216HW,2013-08-24 23:01:00,
2013-08-24 17:06:00,88.2,49.7,29.93,North,0,0.0,0.0,27,0.00,,,0.00,WUHU216HW,2013-08-24 23:06:00,
2013-08-24 17:11:00,88.6,47.9,29.93,North,0,0.0,0.0,25,0.00,,,0.00,WUHU216HW,2013-08-24 23:11:00,
2013-08-24 17:16:00,88.6,47.9,29.93,North,0,0.0,0.0,25,0.00,,,0.00,WUHU216HW,2013-08-24 23:16:00,
2013-08-24 17:21:00,88.4,47.7,29.93,North,0,0.0,0.0,25,0.00,,,0.00,WUHU216HW,2013-08-24 23:21:00,
2013-08-24 17:26:00,87.3,47.9,29.93,North,0,0.0,0.0,26,0.00,,,0.00,WUHU216HW,2013-08-24 23:26:00,
2013-08-24 17:31:00,86.8,47.4,29.93,North,0,0.0,0.0,26,0.00,,,0.00,WUHU216HW,2013-08-24 23:31:00,
2013-08-24 17:36:00,86.0,45.7,29.93,North,0,0.0,0.0,25,0.00,,,0.00,WUHU216HW,2013-08-24 23:36:00,
2013-08-24 17:41:00,85.7,48.6,29.93,North,0,0.0,0.0,28,0.00,,,0.00,WUHU216HW,2013-08-24 23:41:00,
2013-08-24 17:46:00,85.1,48.2,29.93,North,0,0.0,0.0,28,0.00,,,0.00,WUHU216HW,2013-08-24 23:46:00,
2013-08-24 17:51:00,84.6,48.8,29.94,North,0,0.0,0.0,29,0.00,,,0.00,WUHU216HW,2013-08-24 23:51:00,
2013-08-24 17:56:00,84.4,47.5,29.93,North,0,0.0,0.0,28,0.00,,,0.00,WUHU216HW,2013-08-24 23:56:00,
2013-08-24 18:01:00,83.9,49.1,29.93,North,0,0.0,0.0,30,0.00,,,0.00,WUHU216HW,2013-08-25 00:01:00,
2013-08-24 18:06:00,83.7,49.8,29.94,North,0,0.0,0.0,31,0.00,,,0.00,WUHU216HW,2013-08-25 00:06:00,
2013-08-24 18:11:00,83.2,51.0,29.94,North,0,0.0,0.0,33,0.00,,,0.00,WUHU216HW,2013-08-25 00:11:00,
2013-08-24 18:16:00,82.4,47.9,29.94,North,0,0.0,0.0,30,0.00,,,0.00,WUHU216HW,2013-08-25 00:16:00,
2013-08-24 18:21:00,82.1,48.4,29.94,North,0,0.0,0.0,31,0.00,,,0.00,WUHU216HW,2013-08-25 00:21:00,
2013-08-24 18:26:00,81.7,48.1,29.94,North,0,0.0,0.0,31,0.00,,,0.00,WUHU216HW,2013-08-25 00:26:00,
2013-08-24 18:31:00,81.4,47.8,29.94,North,0,0.0,0.0,31,0.00,,,0.00,WUHU216HW,2013-08-25 00:31:00,
2013-08-24 18:36:00,81.0,47.5,29.94,North,0,0.0,0.0,31,0.00,,,0.00,WUHU216HW,2013-08-25 00:36:00,
2013-08-24 18:41:00,80.8,47.3,29.95,North,0,0.0,0.0,31,0.00,,,0.00,WUHU216HW,2013-08-25 00:41:00,
2013-08-24 18:46:00,80.6,47.3,29.94,North,0,0.0,0.0,31,0.00,,,0.00,WUHU216HW,2013-08-25 00:46:00,
2013-08-24 18:51:00,80.3,46.9,29.95,North,0,0.0,0.0,31,0.00,,,0.00,WUHU216HW,2013-08-25 00:51:00,
2013-08-24 18:56:00,79.6,44.5,29.95,North,0,0.0,0.0,29,0.00,,,0.00,WUHU216HW,2013-08-25 00:56:00,
2013-08-24 19:01:00,79.2,44.1,29.95,North,0,0.0,0.0,29,0.00,,,0.00,WUHU216HW,2013-08-25 01:01:00,
2013-08-24 19:06:00,78.8,43.7,29.96,North,0,0.0,0.0,29,0.00,,,0.00,WUHU216HW,2013-08-25 01:06:00,
2013-08-24 19:11:00,78.5,44.6,29.96,North,0,0.0,0.0,30,0.00,,,0.00,WUHU216HW,2013-08-25 01:11:00,
2013-08-24 19:16:00,78.1,44.3,29.96,North,0,0.0,0.0,30,0.00,,,0.00,WUHU216HW,2013-08-25 01:16:00,
2013-08-24 19:21:00,77.9,44.1,29.97,North,0,0.0,0.0,30,0.00,,,0.00,WUHU216HW,2013-08-25 01:21:00,
2013-08-24 19:26:00,77.8,43.9,29.97,North,0,0.0,0.0,30,0.00,,,0.00,WUHU216HW,2013-08-25 01:26:00,
2013-08-24 19:31:00,77.4,42.7,29.99,North,0,0.0,0.0,29,0.00,,,0.00,WUHU216HW,2013-08-25 01:31:00,
2013-08-24 19:36:00,76.7,43.8,29.99,North,0,0.0,0.0,31,0.00,,,0.00,WUHU216HW,2013-08-25 01:36:00,
2013-08-24 19:41:00,74.9,45.2,30.00,North,0,0.0,0.0,35,0.00,,,0.00,WUHU216HW,2013-08-25 01:41:00,
2013-08-24 19:46:00,73.8,46.5,30.01,North,0,0.0,0.0,38,0.00,,,0.00,WUHU216HW,2013-08-25 01:46:00,
2013-08-24 19:51:00,73.3,46.8,30.00,North,0,0.0,0.0,39,0.00,,,0.00,WUHU216HW,2013-08-25 01:51:00,
2013-08-24 19:56:00,72.4,47.4,30.01,North,0,0.0,0.0,41,0.00,,,0.00,WUHU216HW,2013-08-25 01:56:00,
2013-08-24 20:01:00,71.8,49.2,30.01,North,0,0.0,0.0,45,0.00,,,0.00,WUHU216HW,2013-08-25 02:01:00,
2013-08-24 20:06:00,71.1,48.6,30.01,North,0,0.0,0.0,45,0.00,,,0.00,WUHU216HW,2013-08-25 02:06:00,
2013-08-24 20:11:00,70.6,48.7,30.01,North,0,0.0,0.0,46,0.00,,,0.00,WUHU216HW,2013-08-25 02:11:00,
2013-08-24 20:16:00,70.4,47.4,30.02,North,0,0.0,0.0,44,0.00,,,0.00,WUHU216HW,2013-08-25 02:16:00,
2013-08-24 20:21:00,70.2,47.8,30.02,North,0,0.0,0.0,45,0.00,,,0.00,WUHU216HW,2013-08-25 02:21:00,
2013-08-24 20:26:00,69.5,48.9,30.03,North,0,0.0,0.0,48,0.00,,,0.00,WUHU216HW,2013-08-25 02:26:00,
2013-08-24 20:31:00,68.4,48.5,30.04,North,0,0.0,0.0,49,0.00,,,0.00,WUHU216HW,2013-08-25 02:31:00,
2013-08-24 20:36:00,68.2,48.3,30.05,North,0,0.0,0.0,49,0.00,,,0.00,WUHU216HW,2013-08-25 02:36:00,
2013-08-24 20:41:00,68.4,47.4,30.05,North,0,0.0,0.0,47,0.00,,,0.00,WUHU216HW,2013-08-25 02:41:00,
2013-08-24 20:46:00,69.1,46.8,30.04,North,0,0.0,0.0,45,0.00,,,0.00,WUHU216HW,2013-08-25 02:46:00,
2013-08-24 20:51:00,70.0,45.8,30.04,North,0,0.0,0.0,42,0.00,,,0.00,WUHU216HW,2013-08-25 02:51:00,
2013-08-24 20:56:00,70.6,45.7,30.05,North,0,0.0,0.0,41,0.00,,,0.00,WUHU216HW,2013-08-25 02:56:00,
2013-08-24 21:01:00,70.7,45.9,30.05,North,0,0.0,0.0,41,0.00,,,0.00,WUHU216HW,2013-08-25 03:01:00,
2013-08-24 21:06:00,70.7,45.9,30.05,North,0,0.0,0.0,41,0.00,,,0.00,WUHU216HW,2013-08-25 03:06:00,
2013-08-24 21:11:00,70.9,46.0,30.06,North,0,0.0,0.0,41,0.00,,,0.00,WUHU216HW,2013-08-25 03:11:00,
2013-08-24 21:16:00,70.9,46.0,30.07,North,0,0.0,0.0,41,0.00,,,0.00,WUHU216HW,2013-08-25 03:16:00,
2013-08-24 21:21:00,70.7,46.4,30.07,North,0,0.0,0.0,42,0.00,,,0.00,WUHU216HW,2013-08-25 03:21:00,
2013-08-24 21:26:00,70.7,46.4,30.07,North,0,0.0,0.0,42,0.00,,,0.00,WUHU216HW,2013-08-25 03:26:00,
2013-08-24 21:31:00,70.6,48.1,30.09,North,0,0.0,0.0,45,0.00,,,0.00,WUHU216HW,2013-08-25 03:31:00,
2013-08-24 21:36:00,69.7,47.9,30.10,North,0,0.0,0.0,46,0.00,,,0.00,WUHU216HW,2013-08-25 03:36:00,
2013-08-24 21:41:00,69.3,48.2,30.10,North,0,0.0,0.0,47,0.00,,,0.00,WUHU216HW,2013-08-25 03:41:00,
2013-08-24 21:46:00,68.8,48.9,30.09,North,0,0.0,0.0,49,0.00,,,0.00,WUHU216HW,2013-08-25 03:46:00,
2013-08-24 21:51:00,67.7,50.0,30.08,North,0,0.0,0.0,53,0.00,,,0.00,WUHU216HW,2013-08-25 03:51:00,
2013-08-24 21:56:00,67.1,49.0,30.07,North,0,0.0,0.0,52,0.00,,,0.00,WUHU216HW,2013-08-25 03:56:00,
2013-08-24 22:01:00,67.0,48.8,30.07,North,0,0.0,0.0,52,0.00,,,0.00,WUHU216HW,2013-08-25 04:01:00,
2013-08-24 22:02:00,67.0,48.8,30.07,North,0,0.0,0.0,52,0.00,,,0.00,WUHU216HW,2013-08-25 04:02:00,
2013-08-24 22:07:00,67.0,48.3,30.07,North,0,0.0,0.0,51,0.00,,,0.00,WUHU216HW,2013-08-25 04:07:00,
2013-08-24 22:12:00,67.0,48.8,30.07,North,0,0.0,0.0,52,0.00,,,0.00,WUHU216HW,2013-08-25 04:12:00,
2013-08-24 22:17:00,67.0,47.3,30.07,North,0,0.0,0.0,49,0.00,,,0.00,WUHU216HW,2013-08-25 04:17:00,
2013-08-24 22:22:00,67.5,47.7,30.07,North,0,0.0,0.0,49,0.00,,,0.00,WUHU216HW,2013-08-25 04:22:00,
2013-08-24 22:27:00,67.9,46.8,30.06,North,0,0.0,0.0,47,0.00,,,0.00,WUHU216HW,2013-08-25 04:27:00,
2013-08-24 22:32:00,67.9,47.4,30.06,North,0,0.0,0.0,48,0.00,,,0.00,WUHU216HW,2013-08-25 04:32:00,
2013-08-24 22:37:00,68.0,47.0,30.06,North,0,0.0,0.0,47,0.00,,,0.00,WUHU216HW,2013-08-25 04:37:00,
2013-08-24 22:42:00,68.0,47.0,30.07,North,0,0.0,0.0,47,0.00,,,0.00,WUHU216HW,2013-08-25 04:42:00,
2013-08-24 22:47:00,67.9,47.4,30.07,North,0,0.0,0.0,48,0.00,,,0.00,WUHU216HW,2013-08-25 04:47:00,
2013-08-24 22:52:00,67.9,46.8,30.07,North,0,0.0,0.0,47,0.00,,,0.00,WUHU216HW,2013-08-25 04:52:00,
2013-08-24 22:57:00,67.7,47.3,30.07,North,0,0.0,0.0,48,0.00,,,0.00,WUHU216HW,2013-08-25 04:57:00,
2013-08-24 23:02:00,67.7,47.3,30.07,North,0,0.0,0.0,48,0.00,,,0.00,WUHU216HW,2013-08-25 05:02:00,
2013-08-24 23:07:00,67.7,47.3,30.07,North,0,0.0,0.0,48,0.00,,,0.00,WUHU216HW,2013-08-25 05:07:00,
2013-08-24 23:12:00,67.5,47.1,30.07,North,0,0.0,0.0,48,0.00,,,0.00,WUHU216HW,2013-08-25 05:12:00,
2013-08-24 23:17:00,67.3,47.0,30.08,North,0,0.0,0.0,48,0.00,,,0.00,WUHU216HW,2013-08-25 05:17:00,
2013-08-24 23:22:00,67.1,47.3,30.08,North,0,0.0,0.0,49,0.00,,,0.00,WUHU216HW,2013-08-25 05:22:00,
2013-08-24 23:27:00,66.6,48.4,30.07,North,0,0.0,0.0,52,0.00,,,0.00,WUHU216HW,2013-08-25 05:27:00,
2013-08-24 23:32:00,66.1,48.4,30.07,North,0,0.0,0.0,53,0.00,,,0.00,WUHU216HW,2013-08-25 05:32:00,
2013-08-24 23:37:00,65.5,47.9,30.07,North,0,0.0,0.0,53,0.00,,,0.00,WUHU216HW,2013-08-25 05:37:00,
2013-08-24 23:42:00,65.0,49.8,30.08,North,0,0.0,0.0,58,0.00,,,0.00,WUHU216HW,2013-08-25 05:42:00,
2013-08-24 23:47:00,64.4,48.2,30.08,North,0,0.0,0.0,56,0.00,,,0.00,WUHU216HW,2013-08-25 05:47:00,
2013-08-24 23:52:00,64.1,48.4,30.08,North,0,0.0,0.0,57,0.00,,,0.00,WUHU216HW,2013-08-25 05:52:00,
2013-08-24 23:57:00,63.7,49.1,30.09,North,0,0.0,0.0,59,0.00,,,0.00,WUHU216HW,2013-08-25 05:57:00,